KADC

Details ICAO KADC
Name WADENA MUNI
Region United States
Timezone America/Chicago (UTC-5.0)
Plans Departing 0
Arriving 2
Stats Elevation 1,369 ft / 417 m (AMSL)
Location 46.450269° -95.210955°
Runways 1
Magnetic Variation 1.633° E
Sunrise 2018-05-27 10:36:45 UTC / 2018-05-27 05:36:45 Local
Sunset 2018-05-28 02:02:12 UTC / 2018-05-27 21:02:12 Local
Advertisement - Login to hide

Runways

ID Width Length Bearing (true) Bearing (mag) Surface Threshold Offset Overrun Length
16 75 ft / 23 m 4,006 ft / 1,221 m 163.12° 161.49° Asphalt 0 ft / 0 m 0 ft / 0 m
34 75 ft / 23 m 4,006 ft / 1,221 m 343.12° 341.49° Asphalt 0 ft / 0 m 0 ft / 0 m

Map

Weather


0- 5 10 15 20 25 30 35+ Temperature / ° C

Clouds and Precipitation
Forecast for 2018-05-27 12:00 UTC. Updated an hour ago

Ground ~20,000 ft ~40,000 ft Winds

METAR

KADC 271015Z AUTO 00000KT 10SM CLR 13/13 A2978 RMK AO2

TAF

Not found

Frequencies

Recorded 128.32 MHz AWOS 3
Unicom 122.80 MHz CTAF/UNICOM
Warning: Do not use this data for real-world aviation or navigation. No guarantee of current accuracy is given.